Flag for New Caledonia Weather past 2 weeks in Noumea, New Caledonia, New Caledonia

70 °F

Passing clouds.

Feels Like: 70 °F
Forecast: 70 / 86 °F
Wind: 6 mph from North

Location: La Tontouta Nlle-Caledonie

Current Time: Nov 26, 2015 at 5:23:30 AM

Latest Report: Nov 26, 2015 at 5:00 AM

Visibility: N/A

Pressure: 29.92 "Hg

Humidity: 78%

Dew point: 63 °F

Location of NoumeaLocation

Historic Weather in Noumea — Graph


Noumea temperature yesterday

Maximum temperature yesterday: 95 °F (at 2:30 PM)
Minimum temperature yesterday: 70 °F (at 4:30 AM)
Average temperature yesterday: 82 °F

Past Weeks' High & Low Weather Summary

High95 °F (Nov 25, 2:30 PM)94% (Nov 13, 2:00 AM)30.04 "Hg (Nov 13, 2:00 AM)
Low61 °F (Nov 21, 4:00 AM)32% (Nov 24, 1:00 PM)29.80 "Hg (Nov 15, 2:00 PM)
Average76 °F66%29.92 "Hg
* Reported Nov 11 4:00 AM — Nov 26 4:00 AM, Noumea, Weather by CustomWeather, © 2015

Note: Actual official high and low records may vary slightly from our data, if they occured in-between our weather recording intervals... More about our weather records


Noumea weather history for previous 24 hours

Time TempWeatherWind HumidityBarometerVisibility
4:00 AM
Thu, Nov 26
72 °FClear.No wind73%29.92 "Hg10 mi
3:30 AM70 °FClear.2 mph78%29.92 "Hg10 mi
3:00 AM72 °FClear.6 mph78%29.92 "Hg10 mi
2:30 AM73 °FClear.6 mph69%29.92 "Hg10 mi
2:00 AM75 °FClear.6 mph65%29.92 "Hg10 mi
1:30 AM75 °FClear.6 mph65%29.92 "Hg10 mi
1:00 AM75 °FPassing clouds.5 mph69%29.92 "HgN/A
12:30 AM75 °FPassing clouds.6 mph69%29.92 "HgN/A
12:00 AM77 °FPassing clouds.7 mph65%29.92 "HgN/A
11:30 PM
Wed, Nov 25
77 °FPassing clouds.7 mph65%29.95 "HgN/A
11:00 PM77 °FPassing clouds.9 mph65%29.95 "HgN/A
10:30 PM79 °FPassing clouds.8 mph61%29.95 "HgN/A
10:00 PM79 °FPassing clouds.8 mph61%29.95 "HgN/A
9:30 PM79 °FPassing clouds.8 mph61%29.95 "HgN/A
9:00 PM79 °FPassing clouds.8 mph61%29.95 "HgN/A
8:30 PM81 °FPassing clouds.8 mph58%29.95 "HgN/A
8:00 PM81 °FPassing clouds.9 mph62%29.95 "HgN/A
7:30 PM81 °FPassing clouds.7 mph62%29.92 "HgN/A
7:00 PM81 °FPassing clouds.8 mph62%29.92 "HgN/A
6:00 PM82 °FPassing clouds.9 mph58%29.89 "HgN/A
5:30 PM84 °FPartly cloudy.10 mph58%29.89 "HgN/A
5:00 PM86 °FOvercast.8 mph55%29.86 "HgN/A
4:30 PM90 °FPartly sunny.8 mph43%29.86 "HgN/A
4:00 PM91 °FScattered clouds.8 mph41%29.86 "HgN/A
3:00 PM93 °FPassing clouds.12 mph39%29.86 "HgN/A
2:30 PM95 °FPassing clouds.9 mph36%29.86 "HgN/A
2:00 PM93 °FPassing clouds.12 mph39%29.89 "HgN/A
1:30 PM93 °FPassing clouds.13 mph41%29.89 "HgN/A
1:00 PM93 °FPassing clouds.12 mph39%29.89 "HgN/A
12:30 PM93 °FPassing clouds.12 mph41%29.89 "HgN/A
12:00 PM93 °FPassing clouds.12 mph41%29.92 "HgN/A
11:30 AM91 °FSunny.13 mph46%29.92 "Hg10 mi
11:00 AM91 °FScattered clouds.12 mph46%29.92 "HgN/A
10:30 AM88 °FPartly sunny.9 mph52%29.92 "HgN/A
10:00 AM86 °FPassing clouds.9 mph55%29.95 "HgN/A
9:30 AM84 °FBroken clouds.9 mph58%29.95 "HgN/A
9:00 AM86 °FPartly sunny.9 mph55%29.95 "HgN/A
8:30 AM86 °FPartly sunny.6 mph49%29.95 "HgN/A
8:00 AM84 °FPassing clouds.5 mph55%29.95 "HgN/A
7:30 AM82 °FSunny.2 mph62%29.95 "Hg10 mi
7:00 AM79 °FSunny.3 mph65%29.95 "Hg10 mi
6:30 AM77 °FSunny.2 mph74%29.95 "Hg10 mi
6:00 AM73 °FSunny.1 mph78%29.95 "Hg10 mi
5:30 AM72 °FSunny.No wind83%29.92 "Hg10 mi
5:00 AM72 °FSunny.3 mph83%29.92 "Hg10 mi
Weather by CustomWeather, © 2015

See weather overviewHow to use our weather pages